TimeCST,TemperatureF,Dew PointF,Humidity,Sea Level PressureIn,VisibilityMPH,Wind Direction,Wind SpeedMPH,Gust SpeedMPH,PrecipitationIn,Events,Conditions,WindDirDegrees,DateUTC
12:15 AM,30.4,13.5,50,30.20,10.0,West,6.9,-,N/A,,Clear,270,2012-11-28 06:15:00
12:35 AM,29.1,13.6,52,30.20,10.0,West,6.9,-,N/A,,Clear,260,2012-11-28 06:35:00
1:15 AM,28.2,13.5,54,30.20,10.0,West,4.6,-,N/A,,Clear,280,2012-11-28 07:15:00
1:35 AM,28.0,13.8,55,30.21,10.0,Calm,Calm,-,N/A,,Clear,0,2012-11-28 07:35:00
1:55 AM,28.2,13.6,54,30.21,10.0,West,5.8,-,N/A,,Clear,260,2012-11-28 07:55:00
2:15 AM,27.7,14.0,57,30.22,10.0,West,4.6,-,N/A,,Clear,270,2012-11-28 08:15:00
2:35 AM,26.8,13.8,58,30.23,10.0,West,4.6,-,N/A,,Clear,270,2012-11-28 08:35:00
2:55 AM,26.8,14.0,59,30.23,10.0,West,4.6,-,N/A,,Clear,270,2012-11-28 08:55:00
3:15 AM,25.5,14.4,63,30.24,10.0,West,4.6,-,N/A,,Clear,270,2012-11-28 09:15:00
3:35 AM,26.1,14.5,62,30.24,10.0,West,5.8,-,N/A,,Clear,270,2012-11-28 09:35:00
3:55 AM,23.5,14.0,67,30.24,10.0,West,6.9,-,N/A,,Clear,270,2012-11-28 09:55:00
4:15 AM,23.2,14.4,69,30.25,10.0,West,5.8,-,N/A,,Clear,260,2012-11-28 10:15:00
4:35 AM,23.0,13.6,67,30.25,10.0,West,4.6,-,N/A,,Clear,270,2012-11-28 10:35:00
4:55 AM,22.3,14.4,72,30.26,10.0,West,3.5,-,N/A,,Clear,280,2012-11-28 10:55:00
5:15 AM,21.4,13.6,72,30.27,10.0,West,4.6,-,N/A,,Clear,280,2012-11-28 11:15:00
5:35 AM,23.2,14.7,70,30.28,10.0,Calm,Calm,-,N/A,,Clear,0,2012-11-28 11:35:00
5:55 AM,23.9,15.4,70,30.28,10.0,Calm,Calm,-,N/A,,Clear,0,2012-11-28 11:55:00
6:15 AM,23.7,15.4,71,30.29,10.0,Calm,Calm,-,N/A,,Clear,0,2012-11-28 12:15:00
6:35 AM,24.8,15.6,68,30.30,10.0,Calm,Calm,-,N/A,,Clear,0,2012-11-28 12:35:00
6:55 AM,24.8,15.4,68,30.32,10.0,Calm,Calm,-,N/A,,Clear,0,2012-11-28 12:55:00
7:15 AM,24.1,15.6,70,30.33,10.0,Calm,Calm,-,N/A,,Clear,0,2012-11-28 13:15:00
7:35 AM,24.1,15.8,71,30.33,10.0,Calm,Calm,-,N/A,,Clear,0,2012-11-28 13:35:00
7:55 AM,24.4,16.3,71,30.34,10.0,Calm,Calm,-,N/A,,Clear,0,2012-11-28 13:55:00
8:15 AM,25.9,18.0,72,30.34,10.0,Calm,Calm,-,N/A,,Clear,0,2012-11-28 14:15:00
8:35 AM,28.9,20.1,70,30.34,10.0,West,3.5,-,N/A,,Clear,270,2012-11-28 14:35:00
8:55 AM,30.4,20.3,66,30.35,10.0,West,8.1,-,N/A,,Clear,280,2012-11-28 14:55:00
9:15 AM,31.8,20.7,63,30.35,10.0,West,6.9,-,N/A,,Clear,270,2012-11-28 15:15:00
9:35 AM,32.0,19.9,61,30.35,10.0,West,5.8,-,N/A,,Clear,270,2012-11-28 15:35:00
9:55 AM,32.4,19.9,60,30.35,10.0,WNW,4.6,-,N/A,,Clear,290,2012-11-28 15:55:00
10:15 AM,33.4,19.9,58,30.35,10.0,WNW,4.6,-,N/A,,Clear,300,2012-11-28 16:15:00
10:35 AM,34.7,20.1,55,30.35,10.0,WNW,4.6,-,N/A,,Clear,300,2012-11-28 16:35:00
10:55 AM,35.8,20.5,54,30.34,10.0,WNW,4.6,-,N/A,,Clear,300,2012-11-28 16:55:00
11:15 AM,36.9,20.7,52,30.33,10.0,NW,6.9,-,N/A,,Clear,310,2012-11-28 17:15:00
11:35 AM,37.2,20.5,51,30.32,10.0,Calm,Calm,-,N/A,,Clear,0,2012-11-28 17:35:00
11:55 AM,38.1,20.3,49,30.32,10.0,West,8.1,-,N/A,,Clear,260,2012-11-28 17:55:00
12:15 PM,39.2,20.3,47,30.31,10.0,West,4.6,-,N/A,,Clear,260,2012-11-28 18:15:00
12:35 PM,40.3,19.9,44,30.30,10.0,West,6.9,-,N/A,,Clear,270,2012-11-28 18:35:00
12:55 PM,41.0,19.4,42,30.30,10.0,West,5.8,-,N/A,,Clear,260,2012-11-28 18:55:00
1:15 PM,41.9,19.0,40,30.29,10.0,WSW,5.8,-,N/A,,Clear,250,2012-11-28 19:15:00
1:35 PM,43.0,18.3,37,30.28,10.0,WSW,6.9,-,N/A,,Clear,240,2012-11-28 19:35:00
1:55 PM,43.7,16.9,34,30.27,10.0,West,6.9,-,N/A,,Clear,280,2012-11-28 19:55:00
2:15 PM,43.9,16.2,33,30.27,10.0,West,10.4,-,N/A,,Clear,270,2012-11-28 20:15:00
2:35 PM,44.2,16.0,32,30.27,10.0,West,8.1,-,N/A,,Clear,260,2012-11-28 20:35:00
2:55 PM,44.1,15.6,32,30.26,10.0,WSW,9.2,-,N/A,,Clear,240,2012-11-28 20:55:00
3:15 PM,43.9,15.3,32,30.26,10.0,WSW,9.2,-,N/A,,Clear,240,2012-11-28 21:15:00
3:35 PM,43.0,16.7,35,30.27,10.0,SW,5.8,-,N/A,,Clear,230,2012-11-28 21:35:00
3:55 PM,41.9,16.9,36,30.26,10.0,WSW,8.1,-,N/A,,Clear,240,2012-11-28 21:55:00
4:15 PM,40.5,17.8,40,30.26,10.0,SW,6.9,-,N/A,,Clear,220,2012-11-28 22:15:00
4:35 PM,39.0,18.7,44,30.26,10.0,SW,5.8,-,N/A,,Clear,230,2012-11-28 22:35:00
4:55 PM,37.8,19.2,47,30.26,10.0,SW,5.8,-,N/A,,Clear,220,2012-11-28 22:55:00
5:15 PM,37.4,19.0,48,30.25,10.0,SW,4.6,-,N/A,,Clear,230,2012-11-28 23:15:00
5:35 PM,33.6,19.2,56,30.25,10.0,SSW,4.6,-,N/A,,Clear,200,2012-11-28 23:35:00
5:55 PM,34.0,19.8,56,30.24,10.0,SSW,5.8,-,N/A,,Clear,210,2012-11-28 23:55:00
6:15 PM,31.8,19.2,60,30.25,10.0,Calm,Calm,-,N/A,,Clear,0,2012-11-29 00:15:00
6:35 PM,30.2,19.4,64,30.25,10.0,Calm,Calm,-,N/A,,Clear,0,2012-11-29 00:35:00
6:55 PM,27.5,19.6,72,30.24,10.0,Calm,Calm,-,N/A,,Clear,0,2012-11-29 00:55:00
7:35 PM,31.1,19.2,61,30.23,10.0,SSW,5.8,-,N/A,,Clear,210,2012-11-29 01:35:00
7:55 PM,34.9,20.1,55,30.23,10.0,SW,6.9,-,N/A,,Clear,220,2012-11-29 01:55:00
8:15 PM,35.4,20.1,54,30.23,10.0,SW,5.8,-,N/A,,Clear,220,2012-11-29 02:15:00
8:35 PM,35.6,20.3,54,30.23,10.0,SW,4.6,-,N/A,,Clear,220,2012-11-29 02:35:00
8:55 PM,35.6,20.3,54,30.23,10.0,SW,5.8,-,N/A,,Clear,220,2012-11-29 02:55:00
9:15 PM,36.3,20.3,52,30.22,10.0,SSW,8.1,-,N/A,,Clear,210,2012-11-29 03:15:00
9:35 PM,36.3,20.3,52,30.21,10.0,SSW,6.9,-,N/A,,Clear,210,2012-11-29 03:35:00
9:55 PM,36.1,20.5,53,30.21,10.0,SW,4.6,-,N/A,,Clear,220,2012-11-29 03:55:00
10:15 PM,36.1,20.5,53,30.21,10.0,SSW,4.6,-,N/A,,Clear,210,2012-11-29 04:15:00
10:35 PM,36.1,20.7,53,30.20,10.0,SSW,4.6,-,N/A,,Clear,210,2012-11-29 04:35:00
10:55 PM,36.0,20.7,54,30.20,10.0,SW,6.9,-,N/A,,Clear,220,2012-11-29 04:55:00
11:15 PM,36.5,21.0,54,30.20,10.0,SW,6.9,-,N/A,,Clear,220,2012-11-29 05:15:00
11:35 PM,36.5,21.2,54,30.20,10.0,SW,9.2,-,N/A,,Clear,220,2012-11-29 05:35:00
11:55 PM,36.5,21.6,55,30.19,10.0,SW,8.1,-,N/A,,Clear,220,2012-11-29 05:55:00